Weather History for Fort Meade, MD

Change the Weather History Date:

Friday, April 18, 2014

  Actual Average (KBWI) Record (KBWI)
Temperature  
Mean Temperature 42 °F 54 °F  
Max Temperature 51 °F 66 °F 94 °F (1896)
Min Temperature 32 °F 44 °F 26 °F (1875)
Degree Days  
Heating Degree Days 24 11  
Month to date heating degree days 244  
Since 1 July heating degree days 4505  
Cooling Degree Days 0 0  
Month to date cooling degree days 0  
Year to date cooling degree days 1  
Moisture  
Dew Point 32 °F    
Average Humidity 70    
Maximum Humidity 100    
Minimum Humidity 47    
Precipitation  
Precipitation 0.00 in 0.10 in 1.60 in (1924)
Month to date precipitation 1.95  
Year to date precipitation 11.80  
Snow  
Snow 0.00 in 0.00 in T in (2001)
Month to date snowfall 0.0  
Since 1 July snowfall 20.1  
Snow Depth -    
Sea Level Pressure  
Sea Level Pressure 30.46 in    
Wind  
Wind Speed 3 mph (East)    
Max Wind Speed 8 mph    
Max Gust Speed -    
Visibility 10 miles    
Events      
T = Trace of Precipitation, MM = Missing Value Source: NWS Daily Summary

Daily Weather History Graph

Daily Weather History Graph

Search for Another Location

Airport:

Trip Planner

Search our weather history database for the weather conditions in past years. The results will help you decide how hot, cold, wet, or windy it might be!

Date:

Astronomy

Apr. 18, 2014 Rise Set
Actual Time 6:26 AM EDT 7:47 PM EDT
Civil Twilight 5:58 AM EDT 8:15 PM EDT
Nautical Twilight 5:24 AM EDT 8:48 PM EDT
Astronomical Twilight 4:49 AM EDT 9:23 PM EDT
Moon 11:29 PM EDT (4/18) 8:47 AM EDT (4/18)
Length of Visible Light 14h 16m
Length of Day
13h 21m
Waning Gibbous, 87% of the Moon is Illuminated
Apr 18
Waning Gibbous
Apr 22
Last Quarter
Apr 29
New
May 6
First Quarter
May 14
Full

Hourly Weather History & Observations

Time (EDT) Temp. Windchill Dew Point Humidity Pressure Visibility Wind Dir Wind Speed Gust Speed Precip Events Conditions
12:18 AM 32.0 °F - 30.2 °F 93% 30.63 in 10.0 mi Calm Calm - N/A   Clear
12:36 AM 32.0 °F - 30.2 °F 93% 30.62 in 10.0 mi Calm Calm - N/A   Clear
12:57 AM 32.0 °F - 30.2 °F 93% 30.61 in 10.0 mi Calm Calm - N/A   Clear
1:18 AM 32.0 °F - 30.2 °F 93% 30.59 in 10.0 mi Calm Calm - N/A   Scattered Clouds
1:36 AM 32.0 °F 28.7 °F 30.2 °F 93% 30.57 in 10.0 mi East 3.5 mph - N/A   Scattered Clouds
1:57 AM 32.0 °F - 30.2 °F 93% 30.57 in 10.0 mi Calm Calm - N/A   Mostly Cloudy
2:18 AM 32.0 °F 27.5 °F 32.0 °F 100% 30.56 in 10.0 mi ENE 4.6 mph - N/A   Overcast
2:36 AM 35.6 °F 29.9 °F 32.0 °F 87% 30.55 in 10.0 mi ENE 6.9 mph - N/A   Overcast
2:57 AM 35.6 °F 30.7 °F 32.0 °F 87% 30.53 in 10.0 mi East 5.8 mph - N/A   Overcast
3:18 AM 35.6 °F 31.7 °F 32.0 °F 87% 30.53 in 10.0 mi East 4.6 mph - N/A   Overcast
3:36 AM 35.6 °F 31.7 °F 32.0 °F 87% 30.53 in 10.0 mi East 4.6 mph - N/A   Overcast
3:57 AM 37.4 °F 31.4 °F 32.0 °F 81% 30.53 in 10.0 mi East 8.1 mph - N/A   Overcast
4:18 AM 37.4 °F 32.8 °F 32.0 °F 81% 30.52 in 10.0 mi East 5.8 mph - N/A   Overcast
4:36 AM 37.4 °F 32.8 °F 32.0 °F 81% 30.52 in 10.0 mi East 5.8 mph - N/A   Overcast
4:57 AM 37.4 °F 32.1 °F 32.0 °F 81% 30.52 in 10.0 mi ENE 6.9 mph - N/A   Overcast
5:18 AM 37.4 °F 34.9 °F 32.0 °F 81% 30.52 in 10.0 mi NE 3.5 mph - N/A   Overcast
5:39 AM 37.4 °F 34.9 °F 32.0 °F 81% 30.53 in 10.0 mi NE 3.5 mph - N/A   Overcast
5:57 AM 37.4 °F - 32.0 °F 81% 30.54 in 10.0 mi Calm Calm - N/A   Overcast
6:18 AM 37.4 °F 34.9 °F 32.0 °F 81% 30.54 in 10.0 mi ENE 3.5 mph - N/A   Overcast
6:39 AM 37.4 °F 34.9 °F 32.0 °F 81% 30.53 in 10.0 mi NE 3.5 mph - N/A   Overcast
6:57 AM 37.4 °F 32.8 °F 32.0 °F 81% 30.53 in 10.0 mi East 5.8 mph - N/A   Overcast
7:18 AM 37.4 °F - 30.2 °F 75% 30.53 in 10.0 mi Calm Calm - N/A   Overcast
7:39 AM 37.4 °F 32.8 °F 32.0 °F 81% 30.53 in 10.0 mi East 5.8 mph - N/A   Overcast
7:57 AM 37.4 °F 32.8 °F 32.0 °F 81% 30.52 in 10.0 mi ENE 5.8 mph - N/A   Overcast
8:18 AM 39.2 °F - 32.0 °F 75% 30.53 in 10.0 mi Calm Calm - N/A   Overcast
8:39 AM 39.2 °F 34.2 °F 32.0 °F 75% 30.52 in 10.0 mi East 6.9 mph - N/A   Overcast
8:57 AM 41.0 °F 37.1 °F 32.0 °F 70% 30.53 in 10.0 mi East 5.8 mph - N/A   Overcast
9:18 AM 41.0 °F 37.1 °F 32.0 °F 70% 30.52 in 10.0 mi ENE 5.8 mph - N/A   Overcast
9:39 AM 41.0 °F 39.0 °F 32.0 °F 70% 30.53 in 10.0 mi East 3.5 mph - N/A   Overcast
9:57 AM 41.0 °F - 32.0 °F 70% 30.52 in 10.0 mi Calm Calm - N/A   Overcast
10:18 AM 41.0 °F 38.0 °F 32.0 °F 70% 30.52 in 10.0 mi NE 4.6 mph - N/A   Overcast
10:39 AM 42.8 °F 40.1 °F 32.0 °F 66% 30.51 in 10.0 mi ENE 4.6 mph - N/A   Mostly Cloudy
10:57 AM 42.8 °F 40.1 °F 32.0 °F 66% 30.51 in 10.0 mi NNE 4.6 mph - N/A   Scattered Clouds
11:18 AM 42.8 °F 40.1 °F 32.0 °F 66% 30.51 in 10.0 mi NNE 4.6 mph - N/A   Mostly Cloudy
11:39 AM 44.6 °F 42.2 °F 32.0 °F 61% 30.51 in 10.0 mi SE 4.6 mph - N/A   Scattered Clouds
11:57 AM 44.6 °F 43.1 °F 32.0 °F 61% 30.50 in 10.0 mi ENE 3.5 mph - N/A   Clear
12:18 PM 46.4 °F 43.5 °F 32.0 °F 57% 30.49 in 10.0 mi ESE 5.8 mph - N/A   Clear
12:39 PM 46.4 °F - 32.0 °F 57% 30.48 in 10.0 mi Calm Calm - N/A   Clear
12:57 PM 46.4 °F 44.3 °F 32.0 °F 57% 30.47 in 10.0 mi ENE 4.6 mph - N/A   Clear
1:18 PM 46.4 °F - 32.0 °F 57% 30.46 in 10.0 mi Calm Calm - N/A   Clear
1:39 PM 46.4 °F - 32.0 °F 57% 30.45 in 10.0 mi Calm Calm - N/A   Clear
1:57 PM 46.4 °F 42.4 °F 32.0 °F 57% 30.44 in 10.0 mi ESE 8.1 mph - N/A   Clear
2:18 PM 50.0 °F - 32.0 °F 50% 30.43 in 10.0 mi East 6.9 mph - N/A   Clear
2:39 PM 50.0 °F - 32.0 °F 50% 30.42 in 10.0 mi ESE 8.1 mph - N/A   Clear
3:00 PM 50.0 °F - 32.0 °F 50% 30.40 in 10.0 mi ENE 6.9 mph - N/A   Clear
3:18 PM 50.0 °F - 32.0 °F 50% 30.40 in 10.0 mi SSE 4.6 mph - N/A   Clear
3:39 PM 50.0 °F - 32.0 °F 50% 30.40 in 10.0 mi North 3.5 mph - N/A   Clear
4:00 PM 50.0 °F - 32.0 °F 50% 30.39 in 10.0 mi ENE 3.5 mph - N/A   Clear
4:18 PM 51.8 °F - 32.0 °F 47% 30.39 in 10.0 mi Calm Calm - N/A   Clear
4:39 PM 51.8 °F - 32.0 °F 47% 30.38 in 10.0 mi SSE 3.5 mph - N/A   Clear
5:00 PM 51.8 °F - 32.0 °F 47% 30.37 in 10.0 mi SE 3.5 mph - N/A   Clear
5:18 PM 51.8 °F - 32.0 °F 47% 30.36 in 10.0 mi ESE 6.9 mph - N/A   Clear
5:39 PM 50.0 °F - 32.0 °F 50% 30.35 in 10.0 mi Calm Calm - N/A   Clear
6:00 PM 50.0 °F - 32.0 °F 50% 30.34 in 10.0 mi SSE 3.5 mph - N/A   Clear
6:18 PM 50.0 °F - 32.0 °F 50% 30.34 in 10.0 mi ESE 4.6 mph - N/A   Clear
6:39 PM 50.0 °F - 32.0 °F 50% 30.34 in 10.0 mi SE 3.5 mph - N/A   Clear
7:00 PM 50.0 °F - 32.0 °F 50% 30.32 in 10.0 mi SE 3.5 mph - N/A   Clear
7:18 PM 48.2 °F - 33.8 °F 58% 30.31 in 10.0 mi East 4.6 mph - N/A   Clear
7:39 PM 46.4 °F 45.2 °F 33.8 °F 62% 30.32 in 10.0 mi SE 3.5 mph - N/A   Clear
8:00 PM 44.6 °F - 33.8 °F 66% 30.33 in 10.0 mi Calm Calm - N/A   Clear
8:18 PM 44.6 °F - 33.8 °F 66% 30.33 in 10.0 mi Calm Calm - N/A   Clear
8:39 PM 44.6 °F - 33.8 °F 66% 30.33 in 10.0 mi Calm Calm - N/A   Clear
9:00 PM 42.8 °F - 33.8 °F 70% 30.34 in 10.0 mi Calm Calm - N/A   Clear
9:18 PM 42.8 °F - 35.6 °F 76% 30.34 in 10.0 mi Calm Calm - N/A   Clear
9:39 PM 42.8 °F - 33.8 °F 70% 30.33 in 10.0 mi Calm Calm - N/A   Clear
10:00 PM 42.8 °F - 35.6 °F 76% 30.34 in 10.0 mi Calm Calm - N/A   Clear
10:18 PM 41.0 °F - 35.6 °F 81% 30.33 in 10.0 mi Calm Calm - N/A   Clear
10:39 PM 41.0 °F - 35.6 °F 81% 30.32 in 10.0 mi Calm Calm - N/A   Clear
11:00 PM 41.0 °F - 35.6 °F 81% 30.32 in 10.0 mi Calm Calm - N/A   Clear
11:21 PM 41.0 °F - 35.6 °F 81% 30.31 in 10.0 mi Calm Calm - N/A   Clear
11:39 PM 41.0 °F - 35.6 °F 81% 30.31 in 10.0 mi Calm Calm - N/A   Clear